Lid_Strength_Index
3 3 4 5 5 6 6 5 7 8 8 8 8 9 9 9 10 10 10 11 11 11
3 5 5 5 5 5 5 7 7 8 9 9 8 8 10 10 10 11 12 12 12 12
4 4 3 4 6 7 8 8 9 9 10 9 10 10 10 10 11 11 12 12 12 13
7 8 8 8 9 9 9 10 10 9 10 10 10 10 11 12 12 12 12 12 12 12
9 10 10 10 10 9 10 9 10 10 10 11 11 12 12 11 11 12 12 12 12 12
11 11 12 11 11 11 11 11 11 11 11 11 11 11 12 11 12 12 12 12 11 11
13 12 12 13 13 12 12 12 12 12 12 11 11 11 11 12 12 12 11 10 10 10
12 12 12 12 12 12 12 12 12 12 12 12 11 10 12 12 12 11 10 10 9 9
12 12 12 12 12 12 13 13 12 12 12 12 10 7 6 7 10 9 9 9 9 10
12 12 12 12 12 13 13 13 13 13 13 13 12 7 6 5 8 10 10 10 11 11
12 12 12 13 13 13 13 13 13 13 13 13 12 7 5 5 10 11 11 11 11 11
12 13 13 13 14 14 14 14 14 13 13 14 13 7 6 7 10 11 11 10 10 11
13 13 13 14 14 14 14 14 13 14 15 11 12 8 6 7 10 12 11 11 10 7
14 14 14 14 15 15 15 16 16 15 14 12 11 11 7 7 9 10 10 9 9 10